Time,TemperatureF,DewpointF,PressureIn,WindDirection,WindDirectionDegrees,WindSpeedMPH,WindSpeedGustMPH,Humidity,HourlyPrecipIn,Conditions,Clouds,dailyrainin,SoftwareType,DateUTC
2013-03-08 00:01:00,32.4,31.0,30.03,WNW,291,0.0,0.0,95,0.00,,,0.10,oem by Ross Wheeler,2013-03-08 05:01:00,
2013-03-08 00:10:00,32.3,31.0,30.03,WNW,291,0.0,0.0,95,0.00,,,0.00,oem by Ross Wheeler,2013-03-08 05:10:00,
2013-03-08 00:15:00,32.3,31.0,30.03,WNW,291,0.0,0.0,95,0.00,,,0.00,oem by Ross Wheeler,2013-03-08 05:15:00,
2013-03-08 00:20:00,32.3,31.0,30.03,WNW,291,0.0,0.0,95,0.00,,,0.00,oem by Ross Wheeler,2013-03-08 05:20:00,
2013-03-08 00:25:00,32.1,31.0,30.03,WNW,291,0.0,0.0,95,0.00,,,0.00,oem by Ross Wheeler,2013-03-08 05:25:00,
2013-03-08 00:30:00,32.1,31.0,30.03,NNW,339,3.0,0.0,95,0.00,,,0.00,oem by Ross Wheeler,2013-03-08 05:30:00,
2013-03-08 00:35:00,32.1,31.0,30.03,NNW,343,0.0,0.0,95,0.00,,,0.00,oem by Ross Wheeler,2013-03-08 05:35:00,
2013-03-08 00:45:00,32.1,31.0,30.03,NNW,343,2.0,0.0,95,0.00,,,0.00,oem by Ross Wheeler,2013-03-08 05:45:00,
2013-03-08 00:55:00,32.1,31.0,30.03,NNW,337,1.0,0.0,96,0.00,,,0.00,oem by Ross Wheeler,2013-03-08 05:55:00,
2013-03-08 01:00:00,32.0,31.0,30.03,NNW,335,0.0,0.0,96,0.00,,,0.00,oem by Ross Wheeler,2013-03-08 06:00:00,
2013-03-08 01:10:00,32.0,31.0,30.03,NNW,335,0.0,0.0,96,0.00,,,0.00,oem by Ross Wheeler,2013-03-08 06:10:00,
2013-03-08 01:16:00,32.0,31.0,30.03,NW,322,0.0,0.0,96,0.00,,,0.00,oem by Ross Wheeler,2013-03-08 06:16:00,
2013-03-08 01:25:00,31.9,31.0,30.03,NNW,332,1.0,0.0,96,0.00,,,0.00,oem by Ross Wheeler,2013-03-08 06:25:00,
2013-03-08 01:30:00,31.9,31.0,30.03,NNW,330,1.0,0.0,96,0.00,,,0.00,oem by Ross Wheeler,2013-03-08 06:30:00,
2013-03-08 01:40:00,31.9,31.0,30.03,NNW,335,3.0,0.0,96,0.00,,,0.00,oem by Ross Wheeler,2013-03-08 06:40:00,
2013-03-08 01:45:00,31.9,31.0,30.03,NNW,339,0.0,0.0,96,0.00,,,0.00,oem by Ross Wheeler,2013-03-08 06:45:00,
2013-03-08 01:55:00,31.9,31.0,30.02,NNW,335,0.0,0.0,96,0.00,,,0.00,oem by Ross Wheeler,2013-03-08 06:55:00,
2013-03-08 02:00:00,31.9,31.0,30.02,NNW,332,0.0,0.0,96,0.00,,,0.01,oem by Ross Wheeler,2013-03-08 07:00:00,
2013-03-08 02:10:00,31.9,31.0,30.01,NW,320,2.0,0.0,96,0.00,,,0.01,oem by Ross Wheeler,2013-03-08 07:10:00,
2013-03-08 02:15:00,31.9,31.0,30.01,NNW,337,0.0,0.0,96,0.00,,,0.01,oem by Ross Wheeler,2013-03-08 07:15:00,
2013-03-08 02:25:00,31.9,31.0,30.01,NNW,343,2.0,0.0,96,0.00,,,0.01,oem by Ross Wheeler,2013-03-08 07:25:00,
2013-03-08 02:30:00,31.9,31.0,30.01,NNW,343,2.0,0.0,96,0.00,,,0.01,oem by Ross Wheeler,2013-03-08 07:30:00,
2013-03-08 02:40:00,31.9,31.0,30.00,NW,319,3.0,0.0,96,0.00,,,0.01,oem by Ross Wheeler,2013-03-08 07:40:00,
2013-03-08 02:45:00,31.9,31.0,30.00,North,350,2.0,0.0,96,0.00,,,0.01,oem by Ross Wheeler,2013-03-08 07:45:00,
2013-03-08 02:55:00,31.9,31.0,29.99,NNW,343,0.0,0.0,96,0.00,,,0.01,oem by Ross Wheeler,2013-03-08 07:55:00,
2013-03-08 03:00:00,31.9,31.0,29.99,NNW,343,2.0,0.0,96,0.00,,,0.01,oem by Ross Wheeler,2013-03-08 08:00:00,
2013-03-08 03:10:00,31.9,31.0,29.99,NNW,339,0.0,0.0,96,0.00,,,0.01,oem by Ross Wheeler,2013-03-08 08:10:00,
2013-03-08 03:15:00,31.9,31.0,29.99,NNW,336,3.0,0.0,96,0.00,,,0.01,oem by Ross Wheeler,2013-03-08 08:15:00,
2013-03-08 03:25:00,31.7,31.0,29.99,NNW,330,1.0,0.0,96,0.00,,,0.01,oem by Ross Wheeler,2013-03-08 08:25:00,
2013-03-08 03:30:00,31.7,31.0,29.99,North,353,1.0,0.0,96,0.00,,,0.01,oem by Ross Wheeler,2013-03-08 08:30:00,
2013-03-08 03:40:00,31.7,31.0,29.98,North,351,2.0,0.0,96,0.00,,,0.01,oem by Ross Wheeler,2013-03-08 08:40:00,
2013-03-08 03:45:00,31.7,31.0,29.98,NNW,343,2.0,0.0,96,0.00,,,0.01,oem by Ross Wheeler,2013-03-08 08:45:00,
2013-03-08 03:55:00,31.7,31.0,29.98,NNW,343,1.0,0.0,95,0.00,,,0.01,oem by Ross Wheeler,2013-03-08 08:55:00,
2013-03-08 04:00:00,31.7,31.0,29.98,NNW,344,0.0,0.0,95,0.00,,,0.01,oem by Ross Wheeler,2013-03-08 09:00:00,
2013-03-08 04:10:00,31.7,31.0,29.98,NNW,343,1.0,0.0,95,0.00,,,0.01,oem by Ross Wheeler,2013-03-08 09:10:00,
2013-03-08 04:15:00,31.7,31.0,29.98,NNW,343,0.0,0.0,95,0.00,,,0.01,oem by Ross Wheeler,2013-03-08 09:15:00,
2013-03-08 04:25:00,31.7,31.0,29.99,NNW,342,0.0,0.0,96,0.00,,,0.01,oem by Ross Wheeler,2013-03-08 09:25:00,
2013-03-08 04:30:00,31.7,31.0,29.99,NW,312,0.0,0.0,96,0.00,,,0.01,oem by Ross Wheeler,2013-03-08 09:30:00,
2013-03-08 04:40:00,31.6,31.0,29.98,NNW,336,0.0,0.0,96,0.00,,,0.01,oem by Ross Wheeler,2013-03-08 09:40:00,
2013-03-08 04:45:00,31.6,31.0,29.98,NNW,336,0.0,0.0,96,0.00,,,0.01,oem by Ross Wheeler,2013-03-08 09:45:00,
2013-03-08 04:55:00,31.6,31.0,29.99,NNW,336,0.0,0.0,96,0.00,,,0.01,oem by Ross Wheeler,2013-03-08 09:55:00,
2013-03-08 05:00:00,31.6,31.0,29.99,NNW,336,0.0,0.0,96,0.00,,,0.01,oem by Ross Wheeler,2013-03-08 10:00:00,
2013-03-08 05:10:00,31.6,31.0,29.98,NNW,336,0.0,0.0,96,0.00,,,0.01,oem by Ross Wheeler,2013-03-08 10:10:00,
2013-03-08 05:15:00,31.6,31.0,29.98,NNW,336,0.0,0.0,96,0.00,,,0.01,oem by Ross Wheeler,2013-03-08 10:15:00,
2013-03-08 05:25:00,31.6,31.0,29.98,NNW,330,1.0,0.0,96,0.00,,,0.01,oem by Ross Wheeler,2013-03-08 10:25:00,
2013-03-08 05:30:00,31.6,31.0,29.98,NNW,343,0.0,0.0,96,0.00,,,0.01,oem by Ross Wheeler,2013-03-08 10:30:00,
2013-03-08 05:40:00,31.4,30.0,29.98,NW,311,0.0,0.0,96,0.00,,,0.01,oem by Ross Wheeler,2013-03-08 10:40:00,
2013-03-08 05:45:00,31.4,30.0,29.98,NNW,346,0.0,0.0,96,0.00,,,0.01,oem by Ross Wheeler,2013-03-08 10:45:00,
2013-03-08 05:55:00,31.4,30.0,29.98,NNW,335,0.0,0.0,96,0.00,,,0.01,oem by Ross Wheeler,2013-03-08 10:55:00,
2013-03-08 06:00:00,31.4,30.0,29.98,NNW,329,0.0,0.0,96,0.00,,,0.01,oem by Ross Wheeler,2013-03-08 11:00:00,
2013-03-08 06:10:00,31.4,30.0,29.98,NNW,335,0.0,0.0,96,0.00,,,0.01,oem by Ross Wheeler,2013-03-08 11:10:00,
2013-03-08 06:15:00,31.4,30.0,29.98,NNW,335,0.0,0.0,96,0.00,,,0.01,oem by Ross Wheeler,2013-03-08 11:15:00,
2013-03-08 06:25:00,31.3,30.0,29.98,NNW,343,0.0,0.0,96,0.00,,,0.01,oem by Ross Wheeler,2013-03-08 11:25:00,
2013-03-08 06:30:00,31.3,30.0,29.98,NNW,343,0.0,0.0,96,0.00,,,0.01,oem by Ross Wheeler,2013-03-08 11:30:00,
2013-03-08 06:40:00,31.3,30.0,29.98,NNW,343,0.0,0.0,96,0.00,,,0.01,oem by Ross Wheeler,2013-03-08 11:40:00,
2013-03-08 06:45:00,31.3,30.0,29.98,NNW,343,0.0,0.0,96,0.00,,,0.01,oem by Ross Wheeler,2013-03-08 11:45:00,
2013-03-08 06:55:00,31.1,30.0,29.99,NNW,333,0.0,0.0,96,0.00,,,0.01,oem by Ross Wheeler,2013-03-08 11:55:00,
2013-03-08 07:00:00,31.1,30.0,29.99,NNW,333,0.0,0.0,96,0.00,,,0.01,oem by Ross Wheeler,2013-03-08 12:00:00,
2013-03-08 07:10:00,31.1,30.0,29.99,NW,312,0.0,0.0,96,0.00,,,0.01,oem by Ross Wheeler,2013-03-08 12:10:00,
2013-03-08 07:15:00,31.1,30.0,29.99,NW,315,0.0,0.0,96,0.00,,,0.01,oem by Ross Wheeler,2013-03-08 12:15:00,
2013-03-08 07:25:00,31.1,30.0,29.99,NNW,343,0.0,0.0,96,0.00,,,0.01,oem by Ross Wheeler,2013-03-08 12:25:00,
2013-03-08 07:30:00,31.1,30.0,29.99,NW,315,0.0,0.0,96,0.00,,,0.01,oem by Ross Wheeler,2013-03-08 12:30:00,
2013-03-08 07:40:00,31.1,30.0,29.99,NW,313,0.0,0.0,96,0.00,,,0.01,oem by Ross Wheeler,2013-03-08 12:40:00,
2013-03-08 07:45:00,31.1,30.0,29.99,NW,313,0.0,0.0,96,0.00,,,0.01,oem by Ross Wheeler,2013-03-08 12:45:00,
2013-03-08 07:55:00,31.1,30.0,30.00,NW,315,0.0,0.0,96,0.00,,,0.01,oem by Ross Wheeler,2013-03-08 12:55:00,
2013-03-08 08:00:00,31.1,30.0,30.00,NNW,342,0.0,0.0,96,0.00,,,0.01,oem by Ross Wheeler,2013-03-08 13:00:00,
2013-03-08 08:10:00,31.1,30.0,30.00,NNW,342,0.0,0.0,96,0.00,,,0.01,oem by Ross Wheeler,2013-03-08 13:10:00,
2013-03-08 08:15:00,31.1,30.0,30.00,NNW,342,0.0,0.0,96,0.00,,,0.01,oem by Ross Wheeler,2013-03-08 13:15:00,
2013-03-08 08:25:00,31.1,30.0,30.00,NNW,342,0.0,0.0,96,0.00,,,0.01,oem by Ross Wheeler,2013-03-08 13:25:00,
2013-03-08 08:30:00,31.1,30.0,30.00,NNW,342,0.0,0.0,96,0.00,,,0.01,oem by Ross Wheeler,2013-03-08 13:30:00,
2013-03-08 08:40:00,31.1,30.0,30.00,NNW,342,0.0,0.0,96,0.00,,,0.01,oem by Ross Wheeler,2013-03-08 13:40:00,
2013-03-08 08:45:00,31.1,30.0,30.00,NNW,342,0.0,0.0,96,0.00,,,0.01,oem by Ross Wheeler,2013-03-08 13:45:00,
2013-03-08 08:55:00,31.3,30.0,30.00,NNW,342,0.0,0.0,96,0.00,,,0.01,oem by Ross Wheeler,2013-03-08 13:55:00,
2013-03-08 09:00:00,31.1,30.0,30.00,NNW,342,0.0,0.0,96,0.00,,,0.01,oem by Ross Wheeler,2013-03-08 14:00:00,
2013-03-08 09:10:00,31.1,30.0,30.01,NNW,343,0.0,0.0,96,0.00,,,0.01,oem by Ross Wheeler,2013-03-08 14:10:00,
2013-03-08 09:15:00,31.3,30.0,30.01,NNW,342,0.0,0.0,96,0.00,,,0.01,oem by Ross Wheeler,2013-03-08 14:15:00,
2013-03-08 09:25:00,31.3,30.0,30.01,NNW,342,0.0,0.0,96,0.00,,,0.02,oem by Ross Wheeler,2013-03-08 14:25:00,
2013-03-08 09:30:00,31.4,30.0,30.01,NNW,330,0.0,0.0,96,0.00,,,0.02,oem by Ross Wheeler,2013-03-08 14:30:00,
2013-03-08 09:40:00,31.4,30.0,30.01,NW,325,0.0,0.0,96,0.00,,,0.02,oem by Ross Wheeler,2013-03-08 14:40:00,
2013-03-08 09:45:00,31.4,30.0,30.01,NW,326,0.0,0.0,96,0.00,,,0.02,oem by Ross Wheeler,2013-03-08 14:45:00,
2013-03-08 09:55:00,31.4,30.0,30.01,NW,322,0.0,0.0,96,0.00,,,0.02,oem by Ross Wheeler,2013-03-08 14:55:00,
2013-03-08 10:00:00,31.4,30.0,30.01,NNW,327,0.0,0.0,96,0.00,,,0.02,oem by Ross Wheeler,2013-03-08 15:00:00,
2013-03-08 10:10:00,31.4,30.0,30.01,North,353,0.0,0.0,96,0.00,,,0.02,oem by Ross Wheeler,2013-03-08 15:10:00,
2013-03-08 10:15:00,31.6,31.0,30.01,NNW,347,0.0,0.0,96,0.00,,,0.02,oem by Ross Wheeler,2013-03-08 15:15:00,
2013-03-08 10:25:00,31.6,31.0,30.01,NNW,343,0.0,0.0,96,0.00,,,0.02,oem by Ross Wheeler,2013-03-08 15:25:00,
2013-03-08 10:30:00,31.6,31.0,30.01,NNW,336,0.0,0.0,96,0.00,,,0.02,oem by Ross Wheeler,2013-03-08 15:30:00,
2013-03-08 10:40:00,31.6,31.0,30.02,NNW,339,2.0,0.0,96,0.00,,,0.02,oem by Ross Wheeler,2013-03-08 15:40:00,
2013-03-08 10:45:00,31.6,31.0,30.02,North,349,0.0,0.0,96,0.00,,,0.02,oem by Ross Wheeler,2013-03-08 15:45:00,
2013-03-08 10:55:00,31.7,31.0,30.02,North,349,0.0,0.0,96,0.00,,,0.02,oem by Ross Wheeler,2013-03-08 15:55:00,
2013-03-08 11:00:00,31.7,31.0,30.02,NNW,343,1.0,0.0,96,0.00,,,0.02,oem by Ross Wheeler,2013-03-08 16:00:00,
2013-03-08 11:10:00,31.9,31.0,30.02,NW,320,2.0,0.0,96,0.00,,,0.03,oem by Ross Wheeler,2013-03-08 16:10:00,
2013-03-08 11:15:00,31.7,31.0,30.02,NNW,343,2.0,0.0,96,0.00,,,0.03,oem by Ross Wheeler,2013-03-08 16:15:00,
2013-03-08 11:25:00,31.7,31.0,30.02,NNW,343,0.0,0.0,96,0.00,,,0.03,oem by Ross Wheeler,2013-03-08 16:25:00,
2013-03-08 11:30:00,31.9,31.0,30.02,NW,326,1.0,0.0,96,0.00,,,0.03,oem by Ross Wheeler,2013-03-08 16:30:00,
2013-03-08 11:40:00,31.9,31.0,30.02,NW,326,0.0,0.0,96,0.00,,,0.04,oem by Ross Wheeler,2013-03-08 16:40:00,
2013-03-08 11:45:00,32.0,31.0,30.02,NNW,329,0.0,0.0,96,0.00,,,0.04,oem by Ross Wheeler,2013-03-08 16:45:00,
2013-03-08 11:55:00,32.0,31.0,30.02,NW,319,1.0,0.0,96,0.00,,,0.04,oem by Ross Wheeler,2013-03-08 16:55:00,
2013-03-08 12:00:00,32.0,31.0,30.02,NNW,343,2.0,0.0,96,0.00,,,0.04,oem by Ross Wheeler,2013-03-08 17:00:00,
2013-03-08 12:10:00,32.0,31.0,30.02,NW,325,0.0,0.0,96,0.00,,,0.04,oem by Ross Wheeler,2013-03-08 17:10:00,
2013-03-08 12:15:00,32.0,31.0,30.02,NW,325,0.0,0.0,96,0.00,,,0.05,oem by Ross Wheeler,2013-03-08 17:15:00,
2013-03-08 12:25:00,32.0,31.0,30.02,NW,325,0.0,0.0,96,0.00,,,0.05,oem by Ross Wheeler,2013-03-08 17:25:00,
2013-03-08 12:30:00,32.0,31.0,30.02,NW,325,1.0,0.0,96,0.00,,,0.05,oem by Ross Wheeler,2013-03-08 17:30:00,
2013-03-08 12:40:00,32.0,31.0,30.01,NW,325,1.0,0.0,96,0.00,,,0.06,oem by Ross Wheeler,2013-03-08 17:40:00,
2013-03-08 12:45:00,32.0,31.0,30.01,NW,320,1.0,0.0,96,0.00,,,0.06,oem by Ross Wheeler,2013-03-08 17:45:00,
2013-03-08 12:55:00,32.0,31.0,30.01,NNW,327,2.0,0.0,96,0.00,,,0.08,oem by Ross Wheeler,2013-03-08 17:55:00,
2013-03-08 13:00:00,32.0,31.0,30.01,NNW,327,2.0,0.0,96,0.00,,,0.10,oem by Ross Wheeler,2013-03-08 18:00:00,
2013-03-08 13:10:00,32.0,31.0,30.01,NW,325,0.0,0.0,96,0.00,,,0.13,oem by Ross Wheeler,2013-03-08 18:10:00,
2013-03-08 13:15:00,32.1,31.0,30.01,NW,325,1.0,0.0,96,0.00,,,0.15,oem by Ross Wheeler,2013-03-08 18:15:00,
2013-03-08 13:25:00,32.4,32.0,30.01,NW,325,1.0,0.0,97,0.00,,,0.20,oem by Ross Wheeler,2013-03-08 18:25:00,
2013-03-08 13:30:00,32.6,32.0,30.01,NW,325,1.0,0.0,97,0.00,,,0.22,oem by Ross Wheeler,2013-03-08 18:30:00,
2013-03-08 13:40:00,32.6,32.0,30.01,NW,325,2.0,0.0,97,0.00,,,0.26,oem by Ross Wheeler,2013-03-08 18:40:00,
2013-03-08 13:45:00,32.7,32.0,30.01,NW,326,0.0,0.0,97,0.00,,,0.28,oem by Ross Wheeler,2013-03-08 18:45:00,
2013-03-08 13:55:00,33.0,32.0,30.01,NW,325,0.0,0.0,97,0.00,,,0.31,oem by Ross Wheeler,2013-03-08 18:55:00,
2013-03-08 14:00:00,33.2,33.0,30.01,NW,325,0.0,0.0,97,0.00,,,0.32,oem by Ross Wheeler,2013-03-08 19:00:00,
2013-03-08 14:10:00,33.2,33.0,30.02,NW,325,0.0,0.0,97,0.00,,,0.35,oem by Ross Wheeler,2013-03-08 19:10:00,
2013-03-08 14:20:00,33.2,32.0,30.02,NW,325,0.0,0.0,96,0.00,,,0.38,oem by Ross Wheeler,2013-03-08 19:20:00,
2013-03-08 14:25:00,33.0,32.0,30.02,NW,326,1.0,0.0,96,0.00,,,0.39,oem by Ross Wheeler,2013-03-08 19:25:00,
2013-03-08 14:30:00,33.0,32.0,30.02,NW,325,0.0,0.0,96,0.00,,,0.40,oem by Ross Wheeler,2013-03-08 19:30:00,
2013-03-08 14:40:00,33.0,32.0,30.02,NW,326,1.0,0.0,96,0.00,,,0.41,oem by Ross Wheeler,2013-03-08 19:40:00,
2013-03-08 14:45:00,33.0,32.0,30.02,NW,326,0.0,0.0,96,0.00,,,0.42,oem by Ross Wheeler,2013-03-08 19:45:00,
2013-03-08 14:55:00,33.0,32.0,30.02,NW,325,1.0,0.0,97,0.00,,,0.43,oem by Ross Wheeler,2013-03-08 19:55:00,
2013-03-08 15:00:00,33.2,33.0,30.02,NW,325,1.0,0.0,97,0.00,,,0.43,oem by Ross Wheeler,2013-03-08 20:00:00,
2013-03-08 15:10:00,33.5,33.0,30.02,NNW,333,2.0,0.0,97,0.00,,,0.44,oem by Ross Wheeler,2013-03-08 20:10:00,
2013-03-08 15:15:00,33.6,33.0,30.02,NW,325,1.0,0.0,97,0.00,,,0.44,oem by Ross Wheeler,2013-03-08 20:15:00,
2013-03-08 15:25:00,33.9,33.0,30.02,NW,325,0.0,0.0,97,0.00,,,0.44,oem by Ross Wheeler,2013-03-08 20:25:00,
2013-03-08 15:30:00,34.1,33.0,30.02,NW,325,0.0,0.0,97,0.00,,,0.44,oem by Ross Wheeler,2013-03-08 20:30:00,
2013-03-08 15:40:00,34.4,34.0,30.02,NW,325,0.0,0.0,97,0.00,,,0.45,oem by Ross Wheeler,2013-03-08 20:40:00,
2013-03-08 15:45:00,34.5,34.0,30.02,NW,325,0.0,0.0,97,0.00,,,0.45,oem by Ross Wheeler,2013-03-08 20:45:00,
2013-03-08 15:55:00,34.5,34.0,30.03,NNW,332,1.0,0.0,97,0.00,,,0.45,oem by Ross Wheeler,2013-03-08 20:55:00,
2013-03-08 16:00:00,34.5,34.0,30.03,NNW,332,0.0,0.0,97,0.00,,,0.45,oem by Ross Wheeler,2013-03-08 21:00:00,
2013-03-08 16:10:00,34.8,34.0,30.02,NNW,333,0.0,0.0,97,0.00,,,0.45,oem by Ross Wheeler,2013-03-08 21:10:00,
2013-03-08 16:15:00,35.0,34.0,30.02,NNW,333,0.0,0.0,97,0.00,,,0.45,oem by Ross Wheeler,2013-03-08 21:15:00,
2013-03-08 16:25:00,35.2,35.0,30.03,NNW,333,1.0,0.0,97,0.00,,,0.45,oem by Ross Wheeler,2013-03-08 21:25:00,
2013-03-08 16:30:00,35.4,35.0,30.03,NNW,333,0.0,0.0,97,0.00,,,0.45,oem by Ross Wheeler,2013-03-08 21:30:00,
2013-03-08 16:40:00,35.5,35.0,30.04,NNW,340,0.0,0.0,97,0.00,,,0.45,oem by Ross Wheeler,2013-03-08 21:40:00,
2013-03-08 16:45:00,35.5,35.0,30.04,NNW,343,1.0,0.0,97,0.00,,,0.45,oem by Ross Wheeler,2013-03-08 21:45:00,
2013-03-08 16:55:00,35.5,35.0,30.05,NNE,15,2.0,0.0,97,0.00,,,0.45,oem by Ross Wheeler,2013-03-08 21:55:00,
2013-03-08 17:00:00,35.5,35.0,30.05,NNE,28,1.0,0.0,96,0.00,,,0.45,oem by Ross Wheeler,2013-03-08 22:00:00,
2013-03-08 17:10:00,35.5,35.0,30.05,North,10,0.0,0.0,96,0.00,,,0.45,oem by Ross Wheeler,2013-03-08 22:10:00,
2013-03-08 17:15:00,35.4,34.0,30.05,North,10,0.0,0.0,96,0.00,,,0.45,oem by Ross Wheeler,2013-03-08 22:15:00,
2013-03-08 17:25:00,35.2,34.0,30.05,North,10,0.0,0.0,96,0.00,,,0.45,oem by Ross Wheeler,2013-03-08 22:25:00,
2013-03-08 17:30:00,35.2,34.0,30.05,North,10,0.0,0.0,96,0.00,,,0.45,oem by Ross Wheeler,2013-03-08 22:30:00,
2013-03-08 17:40:00,35.1,34.0,30.06,North,10,0.0,0.0,96,0.00,,,0.45,oem by Ross Wheeler,2013-03-08 22:40:00,
2013-03-08 17:45:00,35.1,34.0,30.06,North,10,0.0,0.0,96,0.00,,,0.45,oem by Ross Wheeler,2013-03-08 22:45:00,
2013-03-08 17:55:00,35.1,34.0,30.07,North,10,0.0,0.0,96,0.00,,,0.45,oem by Ross Wheeler,2013-03-08 22:55:00,
2013-03-08 18:00:00,35.1,34.0,30.07,North,10,0.0,0.0,95,0.00,,,0.45,oem by Ross Wheeler,2013-03-08 23:00:00,
2013-03-08 18:10:00,35.1,34.0,30.08,NNE,15,1.0,0.0,96,0.00,,,0.45,oem by Ross Wheeler,2013-03-08 23:10:00,
2013-03-08 18:15:00,35.2,34.0,30.08,North,350,0.0,0.0,96,0.00,,,0.45,oem by Ross Wheeler,2013-03-08 23:15:00,
2013-03-08 18:25:00,35.5,34.0,30.09,NNW,347,2.0,0.0,95,0.00,,,0.45,oem by Ross Wheeler,2013-03-08 23:25:00,
2013-03-08 18:30:00,35.5,34.0,30.09,NNW,333,5.0,0.0,95,0.00,,,0.45,oem by Ross Wheeler,2013-03-08 23:30:00,
2013-03-08 18:40:00,35.8,34.0,30.10,NNE,18,6.0,0.0,94,0.00,,,0.45,oem by Ross Wheeler,2013-03-08 23:40:00,
2013-03-08 18:45:00,35.8,34.0,30.10,North,356,3.0,0.0,93,0.00,,,0.45,oem by Ross Wheeler,2013-03-08 23:45:00,
2013-03-08 18:55:00,36.1,34.0,30.10,North,359,3.0,0.0,90,0.00,,,0.45,oem by Ross Wheeler,2013-03-08 23:55:00,
2013-03-08 19:00:00,36.2,33.0,30.10,NNE,13,2.0,0.0,89,0.00,,,0.45,oem by Ross Wheeler,2013-03-09 00:00:00,
2013-03-08 19:10:00,36.2,33.0,30.11,NNE,18,2.0,0.0,87,0.00,,,0.45,oem by Ross Wheeler,2013-03-09 00:10:00,
2013-03-08 19:15:00,36.2,33.0,30.11,North,6,2.0,0.0,87,0.00,,,0.45,oem by Ross Wheeler,2013-03-09 00:15:00,
2013-03-08 19:25:00,36.2,32.0,30.12,North,10,2.0,0.0,86,0.00,,,0.45,oem by Ross Wheeler,2013-03-09 00:25:00,
2013-03-08 19:30:00,36.2,32.0,30.12,North,357,1.0,0.0,86,0.00,,,0.45,oem by Ross Wheeler,2013-03-09 00:30:00,
2013-03-08 19:40:00,36.2,32.0,30.12,NNW,343,0.0,0.0,86,0.00,,,0.45,oem by Ross Wheeler,2013-03-09 00:40:00,
2013-03-08 19:45:00,36.2,33.0,30.12,NNW,343,0.0,0.0,87,0.00,,,0.45,oem by Ross Wheeler,2013-03-09 00:45:00,
2013-03-08 19:55:00,36.2,33.0,30.13,NNW,337,1.0,0.0,88,0.00,,,0.45,oem by Ross Wheeler,2013-03-09 00:55:00,
2013-03-08 20:00:00,36.4,33.0,30.13,NW,320,1.0,0.0,88,0.00,,,0.45,oem by Ross Wheeler,2013-03-09 01:00:00,
2013-03-08 20:10:00,36.2,33.0,30.14,NW,320,1.0,0.0,88,0.00,,,0.45,oem by Ross Wheeler,2013-03-09 01:10:00,
2013-03-08 20:15:00,36.2,33.0,30.14,NW,313,1.0,0.0,88,0.00,,,0.45,oem by Ross Wheeler,2013-03-09 01:15:00,
2013-03-08 20:25:00,36.5,33.0,30.14,NNW,343,2.0,0.0,88,0.00,,,0.45,oem by Ross Wheeler,2013-03-09 01:25:00,
2013-03-08 20:30:00,36.4,33.0,30.14,NNW,343,2.0,0.0,88,0.00,,,0.45,oem by Ross Wheeler,2013-03-09 01:30:00,
2013-03-08 20:40:00,36.5,33.0,30.14,NNW,343,0.0,0.0,87,0.00,,,0.45,oem by Ross Wheeler,2013-03-09 01:40:00,
2013-03-08 20:45:00,36.7,33.0,30.14,NNW,339,2.0,0.0,87,0.00,,,0.45,oem by Ross Wheeler,2013-03-09 01:45:00,
2013-03-08 20:55:00,37.0,33.0,30.15,NNW,343,3.0,0.0,86,0.00,,,0.45,oem by Ross Wheeler,2013-03-09 01:55:00,
2013-03-08 21:00:00,37.1,33.0,30.15,NNW,337,2.0,0.0,86,0.00,,,0.45,oem by Ross Wheeler,2013-03-09 02:00:00,
2013-03-08 21:10:00,37.2,33.0,30.15,NNW,343,3.0,0.0,84,0.00,,,0.45,oem by Ross Wheeler,2013-03-09 02:10:00,
2013-03-08 21:15:00,37.4,33.0,30.15,NNW,337,5.0,0.0,84,0.00,,,0.45,oem by Ross Wheeler,2013-03-09 02:15:00,
2013-03-08 21:25:00,37.2,33.0,30.16,NNW,343,2.0,0.0,84,0.00,,,0.45,oem by Ross Wheeler,2013-03-09 02:25:00,
2013-03-08 21:30:00,37.1,33.0,30.16,NNW,343,2.0,0.0,84,0.00,,,0.45,oem by Ross Wheeler,2013-03-09 02:30:00,
2013-03-08 21:40:00,36.8,32.0,30.16,NNW,340,1.0,0.0,84,0.00,,,0.45,oem by Ross Wheeler,2013-03-09 02:40:00,
2013-03-08 21:45:00,36.7,32.0,30.16,NNW,343,2.0,0.0,84,0.00,,,0.45,oem by Ross Wheeler,2013-03-09 02:45:00,
2013-03-08 21:55:00,36.5,32.0,30.16,NNW,343,3.0,0.0,84,0.00,,,0.45,oem by Ross Wheeler,2013-03-09 02:55:00,
2013-03-08 22:00:00,36.5,32.0,30.16,NNW,333,2.0,0.0,83,0.00,,,0.45,oem by Ross Wheeler,2013-03-09 03:00:00,
2013-03-08 22:10:00,36.2,32.0,30.16,NNW,343,2.0,0.0,83,0.00,,,0.45,oem by Ross Wheeler,2013-03-09 03:10:00,
2013-03-08 22:15:00,36.2,32.0,30.16,North,353,3.0,0.0,83,0.00,,,0.45,oem by Ross Wheeler,2013-03-09 03:15:00,
2013-03-08 22:25:00,36.2,31.0,30.16,NNW,343,1.0,0.0,81,0.00,,,0.45,oem by Ross Wheeler,2013-03-09 03:25:00,
2013-03-08 22:30:00,36.2,31.0,30.16,North,350,4.0,0.0,81,0.00,,,0.45,oem by Ross Wheeler,2013-03-09 03:30:00,
2013-03-08 22:40:00,36.0,31.0,30.16,NNW,343,2.0,0.0,82,0.00,,,0.45,oem by Ross Wheeler,2013-03-09 03:40:00,
2013-03-08 22:45:00,36.0,31.0,30.16,NNW,343,2.0,0.0,81,0.00,,,0.45,oem by Ross Wheeler,2013-03-09 03:45:00,
2013-03-08 22:55:00,35.7,30.0,30.16,NNW,343,1.0,0.0,81,0.00,,,0.45,oem by Ross Wheeler,2013-03-09 03:55:00,
2013-03-08 23:00:00,35.5,31.0,30.16,North,356,2.0,0.0,82,0.00,,,0.45,oem by Ross Wheeler,2013-03-09 04:00:00,
2013-03-08 23:10:00,35.4,30.0,30.16,NNW,329,0.0,0.0,81,0.00,,,0.45,oem by Ross Wheeler,2013-03-09 04:10:00,
2013-03-08 23:15:00,35.4,30.0,30.16,NNW,344,1.0,0.0,81,0.00,,,0.45,oem by Ross Wheeler,2013-03-09 04:15:00,
2013-03-08 23:25:00,35.1,30.0,30.16,NNW,343,2.0,0.0,82,0.00,,,0.45,oem by Ross Wheeler,2013-03-09 04:25:00,
2013-03-08 23:30:00,35.1,30.0,30.16,NNW,337,0.0,0.0,82,0.00,,,0.45,oem by Ross Wheeler,2013-03-09 04:30:00,
2013-03-08 23:40:00,35.1,30.0,30.17,NNW,342,2.0,0.0,81,0.00,,,0.45,oem by Ross Wheeler,2013-03-09 04:40:00,
2013-03-08 23:45:00,35.1,30.0,30.17,NNW,327,1.0,0.0,81,0.00,,,0.45,oem by Ross Wheeler,2013-03-09 04:45:00,
2013-03-08 23:55:00,35.2,30.0,30.17,NW,325,1.0,0.0,80,0.00,,,0.45,oem by Ross Wheeler,2013-03-09 04:55:00,